FENGYUN 1C DEB

Satellite information

Favourite Embed

Satellite Type and Status

DEBRISIN ORBIT

Key statistics

Satellite FENGYUN 1C DEB at a glance.

Uptime

9496

Days in orbit

Revolutions

≈ 14.3

Per day

Orbit

SSO

Sun Synchronous Orbit

Inclination

98.0

Latest

Satellite identification and parameters

Extended collection of information and parameters for FENGYUN 1C DEB.

Object identification

Identified? True

Debris? True

Object name: FENGYUN 1C DEB

International designator: 1999-025BHZ

Object number (NORAD): 31171

Object ID (CCSDS): 31171

Country: PEOPLES REPUBLIC OF CHINA (PRC)

Current information (Y/N): Y

RCS size: SMALL

Orbital parameters

Period: 100.696 minutes

Inclination: 98.0083 deg

SMA: 7169.719 km

Apoapsis: 908.009 km

Periapsis: 675.159 km

RAAN: 132.6781 deg

Eccentricy: 0.0162384

Argument of periapsis: 256.4797 deg

Mean anomaly: 163.7835 deg

Mean motion: 14.30044524 rev/day

Mean motion (dot): 0.00008094 rev/day2

B* drag term: 0.0027282 1/REarth

Two-line elements (TLE)

Creation date: May 8, 2025, 2:46 p.m.

Reference frame: TEME

Reference center: EARTH

Epoch: May 6, 2025, 5:59 a.m. UTC

TLE line 0: 0 FENGYUN 1C DEB

TLE line 1: 1 31171U 99025BHZ 25126.24976944 .00008094 00000-0 27282-2 0 9993

TLE line 2: 2 31171 98.0083 132.6781 0162384 256.4797 163.7835 14.30044524927003

Live tracking on map

Real-time ground track for satellite FENGYUN 1C DEB.

In-orbit conjunctions

A list of the most updated potential collisions computed for object FENGYUN 1C DEB.

Target Orbit TCA Probability of collision Miss distance Type
COSMOS 1809 LEO 2024-08-25 15:39:09 0.0003667283 639.0 (m) PAYLOAD

Associated space launch

Chinese polar orbiting meteorological satellite

FENGYUN 1C DEB was lifted into orbit during the mission ‘Long March 4B | Feng Yun 1C’, on board a Long March 4B space rocket.

The launch took place on May 10, 1999, 1:33 a.m. from Launch Complex 7.

For more information about the launch, click the button.

Launch to space Long March 4B | Feng Yun 1C
Long March 4B | Feng Yun 1C

Agency: N/A

Status: Launch Successful

Launch date: May 10, 1999, 1:33 a.m. UTC

Rocket: Long March 4B

Launch pad: Launch Complex 7

Location: Taiyuan Satellite Launch Center, People's Republic of China

...

Latest news about this satellite

There are no fresh news available about this satellite. Check back as we update our databases every day.


Newsletter sign-up

Weekly statistics, charts and insights to help you stay on top of the space industry.